EW3811 Weather Reports


time (UTC)temp
F
wind
direction
speed
knots
gust
knots
rain 1hr
in
rain 24hr
in
rain mn
in
humidity
%
barometer
mb
20260507020042 49 287 0.0 0.0 0.01 0.01 0.01 97 1005.3
20260507014549 49 287 0.0 0.0 0.01 0.01 0.01 97 1005.5
20260507013036 50 235 0.0 0.0 0.00 0.00 0.00 97 1005.5
20260507011538 51 212 0.0 0.0 0.00 0.00 0.00 97 1005.5
20260507010036 51 114 0.0 0.0 0.00 0.01 0.00 97 1005.3
20260507004537 51 359 0.0 0.9 0.00 0.01 0.00 97 1005.2
20260507003028 52 290 0.0 0.9 0.00 0.01 0.00 97 1005.1
20260507001528 53 185 0.0 0.0 0.00 0.01 0.00 97 1004.9
20260507000028 54 239 0.0 1.7 0.00 0.01 0.00 97 1004.7
20260506234527 54 159 0.0 0.0 0.00 0.01 0.00 97 1004.7
20260506233027 54 160 0.0 0.0 0.00 0.01 0.00 97 1004.5
20260506231526 55 160 0.0 0.0 0.00 0.01 0.00 97 1004.6
20260506230025 55 285 0.0 1.7 0.00 0.01 0.00 97 1004.6
20260506224524 55 214 0.0 6.1 0.00 0.01 0.00 97 1004.3
20260506223022 55 243 0.9 4.3 0.00 0.01 0.00 97 1004.4
20260506221520 55 219 0.0 4.3 0.00 0.01 0.00 97 1004.5
20260506220031 55 202 0.0 5.2 0.00 0.03 0.00 97 1004.7
20260506214516 55 207 0.0 3.5 0.00 0.03 0.00 97 1005.0
20260506213014 55 280 0.9 4.3 0.00 0.03 0.00 97 1005.1
20260506211513 55 207 0.0 6.1 0.00 0.03 0.00 97 1005.1
20260506210015 55 240 0.9 3.5 0.00 0.03 0.00 97 1005.3
20260506204511 55 268 0.0 2.6 0.00 0.03 0.00 97 1005.4
20260506203019 55 284 0.0 4.3 0.00 0.03 0.00 97 1005.4
20260506201509 55 229 0.0 6.1 0.00 0.03 0.00 97 1005.4
20260506200008 55 252 0.9 5.2 0.00 0.03 0.00 97 1005.5
20260506194505 55 284 0.0 2.6 0.00 0.03 0.00 97 1005.8
20260506193004 55 239 0.0 4.3 0.00 0.03 0.00 97 1005.9
20260506191503 55 267 0.0 3.5 0.00 0.03 0.00 97 1005.9
20260506190004 55 270 0.9 7.0 0.00 0.03 0.00 96 1005.9
20260506184502 55 238 0.0 0.9 0.00 0.03 0.00 96 1005.9
20260506183118 55 216 0.0 0.9 0.00 0.03 0.00 96 1006.2
20260506181602 55 236 0.0 0.0 0.00 0.03 0.00 96 1006.4
20260506180114 55 115 0.0 0.0 0.00 0.04 0.00 96 1007.0
20260506174555 55 273 0.0 0.9 0.00 0.04 0.00 95 1007.1
20260506173124 55 287 0.0 0.0 0.00 0.04 0.00 94 1006.9
20260506171553 55 240 0.0 0.0 0.00 0.04 0.00 93 1006.9
20260506170051 56 181 0.0 4.3 0.00 0.04 0.00 94 1007.0
20260506164550 55 211 0.0 1.7 0.00 0.04 0.00 94 1007.2
20260506163052 56 237 0.0 4.3 0.00 0.04 0.00 93 1007.6
20260506161553 56 244 0.0 1.7 0.00 0.04 0.00 92 1007.9
20260506160044 56 229 0.0 0.9 0.00 0.04 0.00 91 1008.0
20260506154542 56 252 0.0 1.7 0.00 0.04 0.00 90 1008.3
20260506153040 56 298 0.0 0.0 0.00 0.04 0.00 89 1008.3
20260506151541 57 207 0.0 5.2 0.00 0.04 0.00 87 1008.5
20260506150043 57 276 0.0 2.6 0.00 0.05 0.00 86 1008.6
20260506144555 57 200 0.0 3.5 0.00 0.05 0.00 86 1008.5
20260506143038 57 336 0.0 4.3 0.00 0.05 0.00 85 1008.4
20260506141537 56 160 0.0 0.9 0.00 0.05 0.00 85 1008.3
20260506140037 56 166 0.0 0.0 0.00 0.06 0.00 87 1008.4
20260506134536 56 229 0.0 0.0 0.00 0.06 0.00 87 1008.6
20260506133041 55 252 0.0 0.0 0.00 0.06 0.00 87 1008.9
20260506131535 55 135 0.0 0.0 0.00 0.06 0.00 88 1008.9
20260506130037 54 135 0.0 0.0 0.00 0.06 0.00 90 1008.9
20260506124536 54 135 0.0 3.5 0.00 0.06 0.00 90 1008.9
20260506123033 54 255 0.0 0.0 0.00 0.06 0.00 90 1009.2
20260506121532 54 243 0.0 0.0 0.00 0.06 0.00 90 1009.2
20260506120032 54 243 0.0 0.0 0.00 0.06 0.00 90 1009.4
20260506114531 54 243 0.0 0.0 0.00 0.06 0.00 90 1009.4
20260506113031 54 243 0.0 0.0 0.00 0.06 0.00 90 1009.4
20260506111529 54 243 0.0 0.0 0.00 0.06 0.00 90 1009.2
20260506110030 53 242 0.0 0.0 0.00 0.06 0.00 90 1009.4
20260506104530 53 256 0.0 0.0 0.00 0.06 0.00 90 1009.4
20260506103026 54 322 0.0 0.0 0.00 0.06 0.00 90 1009.3
20260506101525 52 320 0.0 0.0 0.00 0.06 0.00 92 1009.1
20260506100025 52 320 0.0 0.0 0.00 0.06 0.00 91 1008.9
20260506094522 52 311 0.0 0.0 0.00 0.06 0.00 89 1008.9
20260506093025 53 323 0.0 0.0 0.00 0.06 0.00 89 1009.0
20260506091524 53 320 0.0 0.0 0.00 0.06 0.00 89 1009.3
20260506090022 54 313 0.0 0.0 0.00 0.07 0.00 88 1009.3
20260506084531 54 356 0.0 0.0 0.00 0.07 0.00 87 1008.9
20260506083012 55 205 0.0 0.0 0.00 0.07 0.00 87 1008.9
20260506081515 55 222 0.0 0.0 0.00 0.07 0.00 87 1008.9
20260506073009 57 195 0.0 0.0 0.00 0.07 0.00 83 1008.8
20260506071508 57 274 0.0 0.0 0.00 0.07 0.00 83 1008.7
20260506061503 57 44 0.0 0.0 0.00 0.07 0.00 83 1008.4
20260506044554 56 350 0.0 0.0 0.00 0.07 0.00 84 1009.0
20260506043052 56 337 0.0 0.0 0.00 0.07 0.00 83 1008.7
20260506041554 55 333 0.0 0.0 0.00 0.07 0.00 87 1008.8
20260506040046 55 323 0.0 0.0 0.00 0.08 0.07 90 1008.9
20260506034552 56 342 0.0 0.0 0.00 0.08 0.07 86 1008.8
20260506033049 58 272 0.0 0.0 0.00 0.08 0.07 78 1009.1
20260506031545 58 272 0.0 0.0 0.00 0.08 0.07 77 1008.7
20260506030056 58 236 0.0 0.0 0.00 0.08 0.07 76 1008.8
20260506024550 57 293 0.0 0.0 0.00 0.08 0.07 78 1008.5
20260506023042 58 262 0.0 1.7 0.00 0.08 0.07 76 1008.5
20260506021552 58 273 0.0 3.5 0.00 0.08 0.07 76 1008.4